IZ3LSV-13 Weather Reports


time (UTC)temp
C
wind
direction
speed
KPH
gust
KPH
rain 1hr
cm
rain 24hr
cm
rain mn
cm
humidity
%
barometer
mb
20260906080609 30 340 1.6 8.0 0.00 0.00 0.00 1117.7
20260906075558 30 349 4.8 11.3 0.00 0.00 0.00 1117.5
20260906075053 29 8 0.0 8.0 0.00 0.00 0.00 1117.5
20260906074547 29 333 1.6 8.0 0.00 0.00 0.00 1117.6
20260906074042 29 348 0.0 8.0 0.00 0.00 0.00 1117.5
20260906073536 29 16 0.0 8.0 0.00 0.00 0.00 1117.4
20260906073031 28 19 1.6 12.9 0.00 0.00 0.00 1117.4
20260906072526 28 44 3.2 12.9 0.00 0.00 0.00 1117.4
20260906072020 28 349 3.2 9.7 0.00 0.00 0.00 1117.4
20260906071515 28 303 3.2 11.3 0.00 0.00 0.00 1117.4
20260906071009 28 321 3.2 12.9 0.00 0.00 0.00 1117.3
20260906065958 28 341 1.6 9.7 0.00 0.00 0.00 1117.3
20260906065453 28 330 3.2 9.7 0.00 0.00 0.00 1117.2
20260906064948 27 44 1.6 8.0 0.00 0.00 0.00 1117.2
20260906064442 27 301 1.6 9.7 0.00 0.00 0.00 1117.0
20260906063937 27 258 1.6 9.7 0.00 0.00 0.00 1117.0
20260906063431 27 292 1.6 6.4 0.00 0.00 0.00 1117.0
20260906062926 27 283 0.0 8.0 0.00 0.00 0.00 1117.1
20260906062421 27 323 0.0 8.0 0.00 0.00 0.00 1117.0
20260906061409 27 332 1.6 8.0 0.00 0.00 0.00 1116.9
20260906060904 27 320 3.2 8.0 0.00 0.00 0.00 1116.7
20260906060359 26 331 1.6 6.4 0.00 0.00 0.00 1116.7
20260906055853 26 315 1.6 8.0 0.00 0.00 0.00 1116.6
20260906055348 26 331 1.6 8.0 0.00 0.00 0.00 1116.6
20260906054842 26 346 1.6 4.8 0.00 0.00 0.00 1116.5
20260906054336 26 315 0.0 4.8 0.00 0.00 0.00 1116.4
20260906053831 26 326 0.0 4.8 0.00 0.00 0.00 1116.3
20260906053326 26 186 0.0 4.8 0.00 0.00 0.00 1116.2
20260906052819 26 315 1.6 4.8 0.00 0.00 0.00 1116.2
20260906052314 26 273 0.0 4.8 0.00 0.00 0.00 1116.2
20260906051808 26 0 0.0 4.8 0.00 0.00 0.00 1116.1
20260906051303 26 275 0.0 3.2 0.00 0.00 0.00 1116.0
20260906050758 25 350 0.0 3.2 0.00 0.00 0.00 1116.1
20260906050252 25 293 0.0 6.4 0.00 0.00 0.00 1116.0
20260906045747 25 345 0.0 8.0 0.00 0.00 0.00 1116.0
20260906045241 25 241 0.0 8.0 0.00 0.00 0.00 1115.9
20260906043724 25 18 0.0 6.4 0.00 0.00 0.00 1115.8
20260906043219 25 17 0.0 8.0 0.00 0.00 0.00 1115.9
20260906042714 25 352 0.0 8.0 0.00 0.00 0.00 1115.8
20260906042208 25 8 0.0 4.8 0.00 0.00 0.00 1115.6
20260906041702 25 216 1.6 4.8 0.00 0.00 0.00 1115.6
20260906041154 25 276 0.0 6.4 0.00 0.00 0.00 1115.5
20260906040649 25 185 1.6 6.4 0.00 0.00 0.00 1115.5
20260906040143 26 146 0.0 4.8 0.00 0.00 0.00 1115.5
20260906035638 26 359 0.0 4.8 0.00 0.00 0.00 1115.5
20260906035133 26 214 0.0 4.8 0.00 0.00 0.00 1115.4
20260906034627 26 7 0.0 4.8 0.00 0.00 0.00 1115.4
20260906034122 26 303 0.0 8.0 0.00 0.00 0.00 1115.3
20260906033615 26 319 3.2 8.0 0.00 0.00 0.00 1115.3
20260906033110 26 30 0.0 3.2 0.00 0.00 0.00 1115.3
20260906032604 26 64 0.0 3.2 0.00 0.00 0.00 1115.3
20260906032059 26 273 0.0 4.8 0.00 0.00 0.00 1115.2
20260906031553 26 67 0.0 4.8 0.00 0.00 0.00 1115.3
20260906031048 26 35 0.0 4.8 0.00 0.00 0.00 1115.2
20260906030542 26 67 0.0 4.8 0.00 0.00 0.00 1115.3
20260906030037 26 346 0.0 4.8 0.00 0.00 0.00 1115.2
20260906025532 26 319 0.0 4.8 0.00 0.00 0.00 1115.1
20260906025026 26 291 0.0 4.8 0.00 0.00 0.00 1115.1
20260906024521 26 346 0.0 4.8 0.00 0.00 0.00 1115.2
20260906024015 26 35 0.0 3.2 0.00 0.00 0.00 1115.2
20260906023510 26 46 0.0 3.2 0.00 0.00 0.00 1115.1
20260906023004 26 65 0.0 4.8 0.00 0.00 0.00 1115.0
20260906022459 26 26 0.0 3.2 0.00 0.00 0.00 1115.0
20260906021953 26 358 0.0 3.2 0.00 0.00 0.00 1114.9
20260906021448 26 332 0.0 3.2 0.00 0.00 0.00 1114.9
20260906020943 26 155 0.0 4.8 0.00 0.00 0.00 1114.9
20260906020437 26 335 1.6 4.8 0.00 0.00 0.00 1114.9
20260906015931 26 269 0.0 0.0 0.00 0.00 0.00 1115.0
20260906015426 26 198 0.0 4.8 0.00 0.00 0.00 1115.0
20260906014920 26 329 0.0 6.4 0.00 0.00 0.00 1115.0
20260906014415 26 122 0.0 6.4 0.00 0.00 0.00 1114.9
20260906013909 26 346 0.0 4.8 0.00 0.00 0.00 1114.8
20260906013402 27 306 0.0 4.8 0.00 0.00 0.00 1114.7
20260906012857 27 299 0.0 4.8 0.00 0.00 0.00 1114.8
20260906012352 27 41 0.0 4.8 0.00 0.00 0.00 1114.8
20260906011846 27 312 0.0 4.8 0.00 0.00 0.00 1114.7
20260906011341 27 287 0.0 8.0 0.00 0.00 0.00 1114.7
20260906010835 27 338 1.6 8.0 0.00 0.00 0.00 1114.7
20260906010329 27 313 0.0 4.8 0.00 0.00 0.00 1114.7
20260906005824 27 237 0.0 4.8 0.00 0.00 0.00 1114.6
20260906005318 27 334 1.6 4.8 0.00 0.00 0.00 1114.8
20260906004812 27 242 0.0 3.2 0.00 0.00 0.00 1114.7
20260906003801 27 234 0.0 3.2 0.00 0.00 0.00 1114.7
20260906003255 27 15 0.0 0.0 0.00 0.00 0.00 1114.7
20260906002749 27 358 0.0 0.0 0.00 0.00 0.00 1114.8
20260906002244 27 40 0.0 4.8 0.00 0.00 0.00 1114.7
20260906001738 27 298 0.0 4.8 0.00 0.00 0.00 1114.8
20260906001233 27 29 1.6 4.8 0.00 0.00 0.00 1114.8
20260906000727 27 128 0.0 4.8 0.00 0.00 0.00 1114.8
20260906000222 27 249 0.0 3.2 0.00 0.00 0.00 1114.8
20260905235716 27 20 0.0 3.2 0.00 0.00 0.00 1114.7
20260905235211 27 291 0.0 3.2 0.00 0.00 0.00 1114.7
20260905234705 27 67 0.0 4.8 0.00 0.00 0.00 1114.7
20260905234200 27 9 0.0 4.8 0.00 0.00 0.00 1114.7
20260905233654 27 53 1.6 3.2 0.00 0.00 0.00 1114.6
20260905233149 27 68 0.0 3.2 0.00 0.00 0.00 1114.6
20260905232643 28 12 0.0 4.8 0.00 0.00 0.00 1114.5
20260905232138 28 291 0.0 4.8 0.00 0.00 0.00 1114.5
20260905231632 28 173 0.0 0.0 0.00 0.00 0.00 1114.5
20260905231127 28 293 0.0 0.0 0.00 0.00 0.00 1114.5
20260905230622 28 353 0.0 0.0 0.00 0.00 0.00 1114.5
20260905230116 28 270 0.0 3.2 0.00 0.00 0.00 1114.4
20260905225611 28 271 0.0 3.2 0.00 0.00 0.00 1114.4
20260905225105 28 354 0.0 0.0 0.00 0.00 0.00 1114.3
20260905224559 28 335 0.0 0.0 0.00 0.00 0.00 1114.3
20260905224054 28 312 0.0 4.8 0.00 0.00 0.00 1114.3
20260905223042 28 309 0.0 0.0 0.00 0.00 0.00 1114.2
20260905222537 28 253 0.0 0.0 0.00 0.00 0.00 1114.2
20260905222031 28 349 0.0 0.0 0.00 0.00 0.00 1114.0
20260905221526 28 357 0.0 0.0 0.00 0.00 0.00 1114.0
20260905221020 28 318 0.0 4.8 0.00 0.00 0.00 1114.0
20260905220514 28 352 0.0 4.8 0.00 0.00 0.00 1114.0
20260905215503 28 0 0.0 3.2 0.00 0.00 0.00 1113.8
20260905214957 28 39 0.0 4.8 0.00 0.00 0.00 1113.8
20260905214452 28 352 0.0 4.8 0.00 0.00 0.00 1113.9
20260905213946 28 46 0.0 6.4 0.00 0.00 0.00 1113.8
20260905213441 28 330 0.0 6.4 0.00 0.00 0.00 1113.8
20260905212936 28 329 0.0 3.2 0.00 0.00 0.00 1113.8
20260905212430 29 328 0.0 0.0 0.00 0.00 0.00 1113.7
20260905211925 29 302 0.0 0.0 0.00 0.00 0.00 1113.7
20260905211419 29 341 0.0 0.0 0.00 0.00 0.00 1113.7
20260905210914 29 338 0.0 3.2 0.00 0.00 0.00 1113.8
20260905210408 29 346 0.0 4.8 0.00 0.00 0.00 1113.7
20260905205903 29 304 0.0 4.8 0.00 0.00 0.00 1113.7
20260905205358 29 334 0.0 3.2 0.00 0.00 0.00 1113.6
20260905204852 29 355 0.0 3.2 0.00 0.00 0.00 1113.7
20260905204347 29 336 0.0 3.2 0.00 0.00 0.00 1113.6
20260905203841 29 330 0.0 3.2 0.00 0.00 0.00 1113.6
20260905203336 29 270 0.0 0.0 0.00 0.00 0.00 1113.5
20260905202831 29 270 0.0 0.0 0.00 0.00 0.00 1113.4
20260905202325 29 270 0.0 0.0 0.00 0.00 0.00 1113.5
20260905201820 30 270 0.0 0.0 0.00 0.00 0.00 1113.3
20260905201314 30 50 0.0 0.0 0.00 0.00 0.00 1113.3
20260905200809 30 31 0.0 0.0 0.00 0.00 0.00 1113.2
20260905200304 30 81 0.0 0.0 0.00 0.00 0.00 1113.0
20260905195758 30 36 0.0 0.0 0.00 0.00 0.00 1113.1
20260905195253 30 40 0.0 0.0 0.00 0.00 0.00 1113.2
20260905194747 30 42 0.0 0.0 0.00 0.00 0.00 1113.1
20260905194242 30 86 0.0 0.0 0.00 0.00 0.00 1113.0
20260905193736 30 73 0.0 0.0 0.00 0.00 0.00 1112.9
20260905193231 30 40 0.0 0.0 0.00 0.00 0.00 1113.0
20260905192725 30 18 0.0 0.0 0.00 0.00 0.00 1112.8
20260905192220 30 44 0.0 0.0 0.00 0.00 0.00 1112.8
20260905191714 30 52 0.0 0.0 0.00 0.00 0.00 1112.7
20260905191209 30 45 0.0 0.0 0.00 0.00 0.00 1112.6
20260905190704 30 45 0.0 0.0 0.00 0.00 0.00 1112.6
20260905190158 30 42 0.0 0.0 0.00 0.00 0.00 1112.5
20260905185653 31 40 0.0 0.0 0.00 0.00 0.00 1112.4
20260905185147 31 52 0.0 0.0 0.00 0.00 0.00 1112.3
20260905184642 31 45 0.0 0.0 0.00 0.00 0.00 1112.3
20260905184137 31 45 0.0 0.0 0.00 0.00 0.00 1112.2
20260905183631 31 6 0.0 0.0 0.00 0.00 0.00 1112.2
20260905183126 31 88 0.0 0.0 0.00 0.00 0.00 1112.1
20260905182620 31 45 0.0 0.0 0.00 0.00 0.00 1111.9
20260905182115 31 45 0.0 0.0 0.00 0.00 0.00 1111.8
20260905181609 31 45 0.0 0.0 0.00 0.00 0.00 1111.7
20260905181103 31 89 0.0 0.0 0.00 0.00 0.00 1111.6
20260905180558 31 89 0.0 0.0 0.00 0.00 0.00 1111.6
20260905180053 32 63 0.0 0.0 0.00 0.00 0.00 1111.6
20260905175546 32 89 0.0 0.0 0.00 0.00 0.00 1111.4
20260905175041 32 89 0.0 0.0 0.00 0.00 0.00 1111.3
20260905174535 32 89 0.0 0.0 0.00 0.00 0.00 1111.2
20260905174030 32 89 0.0 0.0 0.00 0.00 0.00 1111.2
20260905173525 32 76 0.0 0.0 0.00 0.00 0.00 1111.1
20260905173019 32 45 0.0 0.0 0.00 0.00 0.00 1111.1
20260905172513 33 45 0.0 0.0 0.00 0.00 0.00 1111.0
20260905172008 33 45 0.0 0.0 0.00 0.00 0.00 1110.9
20260905171502 33 45 0.0 0.0 0.00 0.00 0.00 1110.9
20260905170956 33 45 0.0 0.0 0.00 0.00 0.00 1110.8
20260905170450 33 45 0.0 0.0 0.00 0.00 0.00 1110.8
20260905165945 33 45 0.0 0.0 0.00 0.00 0.00 1110.7
20260905165438 34 56 0.0 0.0 0.00 0.00 0.00 1110.7
20260905164427 34 91 0.0 0.0 0.00 0.00 0.00 1110.7
20260905163922 34 84 0.0 0.0 0.00 0.00 0.00 1110.6
20260905163416 34 112 0.0 0.0 0.00 0.00 0.00 1110.5
20260905162911 35 64 0.0 0.0 0.00 0.00 0.00 1110.5
20260905162405 35 20 0.0 0.0 0.00 0.00 0.00 1110.6
20260905161900 35 44 0.0 0.0 0.00 0.00 0.00 1110.5
20260905161355 35 46 0.0 0.0 0.00 0.00 0.00 1110.5
20260905160849 35 41 0.0 0.0 0.00 0.00 0.00 1110.3
20260905160344 35 55 0.0 0.0 0.00 0.00 0.00 1110.4
20260905155838 35 39 0.0 0.0 0.00 0.00 0.00 1110.5
20260905155333 35 68 0.0 0.0 0.00 0.00 0.00 1110.4
20260905154828 35 34 0.0 0.0 0.00 0.00 0.00 1110.3
20260905154322 35 66 0.0 0.0 0.00 0.00 0.00 1110.3
20260905153817 35 52 0.0 0.0 0.00 0.00 0.00 1110.2
20260905153311 35 77 0.0 0.0 0.00 0.00 0.00 1110.2
20260905152806 35 84 0.0 0.0 0.00 0.00 0.00 1110.3
20260905152301 35 89 0.0 0.0 0.00 0.00 0.00 1110.2
20260905151755 35 52 0.0 0.0 0.00 0.00 0.00 1110.2
20260905151250 35 83 0.0 0.0 0.00 0.00 0.00 1110.2
20260905150744 35 270 0.0 0.0 0.00 0.00 0.00 1110.2
20260905150238 35 60 0.0 0.0 0.00 0.00 0.00 1110.2
20260905145733 35 52 0.0 0.0 0.00 0.00 0.00 1110.0
20260905145227 35 0 0.0 0.0 0.00 0.00 0.00 1110.1
20260905144216 35 115 0.0 0.0 0.00 0.00 0.00 1110.1
20260905143711 35 69 0.0 0.0 0.00 0.00 0.00 1110.1
20260905143204 35 47 0.0 0.0 0.00 0.00 0.00 1110.3
20260905142659 35 97 0.0 0.0 0.00 0.00 0.00 1110.3
20260905142154 35 68 0.0 0.0 0.00 0.00 0.00 1110.3
20260905141647 35 175 0.0 0.0 0.00 0.00 0.00 1110.3
20260905141142 35 18 0.0 4.8 0.00 0.00 0.00 1110.2
20260905140636 35 70 0.0 8.0 0.00 0.00 0.00 1110.2
20260905140131 35 141 0.0 3.2 0.00 0.00 0.00 1110.2
20260905135626 35 250 0.0 0.0 0.00 0.00 0.00 1110.3
20260905135120 35 225 0.0 0.0 0.00 0.00 0.00 1110.3
20260905134615 35 225 0.0 0.0 0.00 0.00 0.00 1110.4
20260905134108 35 109 0.0 4.8 0.00 0.00 0.00 1110.4
20260905133603 35 248 0.0 4.8 0.00 0.00 0.00 1110.4
20260905133058 35 275 0.0 0.0 0.00 0.00 0.00 1110.5
20260905132552 35 83 0.0 0.0 0.00 0.00 0.00 1110.6
20260905132047 35 147 0.0 0.0 0.00 0.00 0.00 1110.5
20260905131541 35 195 0.0 0.0 0.00 0.00 0.00 1110.4
20260905131036 34 223 0.0 0.0 0.00 0.00 0.00 1110.5
20260905130529 34 314 0.0 0.0 0.00 0.00 0.00 1110.5
20260905130023 34 89 0.0 0.0 0.00 0.00 0.00 1110.7
20260905125518 34 35 0.0 0.0 0.00 0.00 0.00 1110.7
20260905125012 34 90 0.0 0.0 0.00 0.00 0.00 1110.8
20260905124507 34 134 0.0 0.0 0.00 0.00 0.00 1110.9
20260905124001 34 329 0.0 0.0 0.00 0.00 0.00 1110.9
20260905123456 34 12 0.0 0.0 0.00 0.00 0.00 1111.0
20260905122950 34 315 0.0 3.2 0.00 0.00 0.00 1111.0
20260905122445 34 7 0.0 3.2 0.00 0.00 0.00 1111.1
20260905121939 34 225 0.0 0.0 0.00 0.00 0.00 1111.2
20260905121434 34 313 0.0 4.8 0.00 0.00 0.00 1111.2
20260905120929 34 71 0.0 4.8 0.00 0.00 0.00 1111.2
20260905120423 34 345 0.0 4.8 0.00 0.00 0.00 1111.1
20260905115918 34 5 0.0 6.4 0.00 0.00 0.00 1111.2
20260905115413 34 33 1.6 6.4 0.00 0.00 0.00 1111.1
20260905114907 33 122 0.0 0.0 0.00 0.00 0.00 1111.1
20260905114402 33 0 0.0 0.0 0.00 0.00 0.00 1111.1
20260905113856 33 336 0.0 0.0 0.00 0.00 0.00 1111.2
20260905113351 33 169 0.0 4.8 0.00 0.00 0.00 1111.3
20260905112845 33 358 0.0 4.8 0.00 0.00 0.00 1111.4
20260905112340 33 88 0.0 3.2 0.00 0.00 0.00 1111.5
20260905111835 33 94 0.0 3.2 0.00 0.00 0.00 1111.5
20260905111329 33 126 0.0 4.8 0.00 0.00 0.00 1111.4
20260905110824 33 281 0.0 4.8 0.00 0.00 0.00 1111.3
20260905110318 33 354 0.0 0.0 0.00 0.00 0.00 1111.3
20260905105813 33 21 0.0 8.0 0.00 0.00 0.00 1111.3
20260905105308 33 220 0.0 8.0 0.00 0.00 0.00 1111.4
20260905104802 33 331 0.0 8.0 0.00 0.00 0.00 1111.6
20260905104257 33 60 0.0 8.0 0.00 0.00 0.00 1111.5
20260905103751 33 317 0.0 8.0 0.00 0.00 0.00 1111.4
20260905103246 33 3 1.6 8.0 0.00 0.00 0.00 1111.4
20260905102740 33 43 0.0 4.8 0.00 0.00 0.00 1111.5
20260905102235 33 64 0.0 4.8 0.00 0.00 0.00 1111.6
20260905101730 33 305 0.0 4.8 0.00 0.00 0.00 1111.6
20260905101224 34 320 0.0 4.8 0.00 0.00 0.00 1111.5
20260905100719 34 352 0.0 4.8 0.00 0.00 0.00 1111.5
20260905100213 34 353 0.0 4.8 0.00 0.00 0.00 1111.5
20260905095707 35 53 0.0 4.8 0.00 0.00 0.00 1111.6
20260905095202 35 355 0.0 3.2 0.00 0.00 0.00 1111.4
20260905094656 35 235 0.0 0.0 0.00 0.00 0.00 1111.4
20260905094151 35 73 0.0 0.0 0.00 0.00 0.00 1111.4
20260905093645 35 66 0.0 0.0 0.00 0.00 0.00 1111.5
20260905093139 35 94 0.0 0.0 0.00 0.00 0.00 1111.4
20260905092634 34 89 0.0 0.0 0.00 0.00 0.00 1111.4
20260905092128 34 2 0.0 0.0 0.00 0.00 0.00 1111.4
20260905091623 34 201 0.0 3.2 0.00 0.00 0.00 1111.4
20260905091117 34 328 0.0 4.8 0.00 0.00 0.00 1111.4
20260905090612 33 45 0.0 0.0 0.00 0.00 0.00 1111.4
20260905090107 33 15 0.0 4.8 0.00 0.00 0.00 1111.5
20260905085601 33 16 0.0 4.8 0.00 0.00 0.00 1111.4
20260905085056 33 80 0.0 0.0 0.00 0.00 0.00 1111.3
20260905084550 32 343 0.0 3.2 0.00 0.00 0.00 1111.2
20260905084045 32 15 0.0 3.2 0.00 0.00 0.00 1111.2
20260905083539 32 114 0.0 0.0 0.00 0.00 0.00 1111.2
20260905083034 31 33 0.0 4.8 0.00 0.00 0.00 1111.1
20260905082529 31 322 0.0 4.8 0.00 0.00 0.00 1111.1
20260905082023 31 299 0.0 3.2 0.00 0.00 0.00 1110.9
20260905081518 30 307 0.0 9.7 0.00 0.00 0.00 1111.1
20260905081012 30 28 0.0 9.7 0.00 0.00 0.00 1111.1